Tracking 19475 objects as of 18-Jan-2019
HD Live streaming from Space Station
objects crossing your sky now

RADUGA 12

Track RADUGA 12 now!
RADUGA 12 is classified as:


NORAD ID: 13974
Int'l Code: 1983-028A
Perigee: 35,765.2 km
Apogee: 35,810.3 km
Inclination: 13.3 °
Period: 1,435.8 minutes
Semi major axis: 42158 km
RCS: 0.1428 m2 (medium)
Launch date: April 8, 1983
Source: Commonwealth of Independent States (former USSR) (CIS)
Launch site: TYURATAM MISSILE AND SPACE COMPLEX (TTMTR)
aabbcc
Your satellite tracking list
Your tracking list is empty




NASA's NSSDC Master Catalog

Two Line Element Set (TLE):
1 13974U 83028A   19016.86878215 -.00000142  00000-0  00000+0 0  9994
2 13974  13.3492 331.2838 0005351 344.5935 192.5937  1.00293095142218
Source of the keplerian elements: AFSPC